Ridgedale, MO

6:06 AM CST on February 20, 2017 (GMT -0600)
Branson

Weather History for KBBG - January, 2013

Change the Weather History Date:

Saturday, January 19, 2013

  Actual Average (KHRO) Record (KHRO)
Temperature  
Mean Temperature 52 °F -  
Max Temperature 62 °F 44 °F 78 °F (1952)
Min Temperature 41 °F 25 °F -13 °F (1893)
Degree Days  
Heating Degree Days 14    
Growing Degree Days 2 (Base 50)    
Moisture  
Dew Point 28 °F    
Average Humidity 44    
Maximum Humidity 53    
Minimum Humidity 30    
Precipitation  
Precipitation 0.00 in - - ()
Sea Level Pressure  
Sea Level Pressure 30.17 in    
Wind  
Wind Speed 8 mph (SW)    
Max Wind Speed 18 mph    
Max Gust Speed 25 mph    
Visibility 10 miles    
Events      
Averages and records for this station are not official NWS values.
T = Trace of Precipitation, MM = Missing Value Source: NWS Daily Summary

Daily Weather History Graph

Daily Weather History Graph

Search for Another Location

Airport or City:

Trip Planner

Search our weather history database for the weather conditions in past years. The results will help you decide how hot, cold, wet, or windy it might be!

Date:

Astronomy

Jan. 19, 2013 Rise Set
Actual Time 7:22 AM CST 5:25 PM CST
Civil Twilight 6:54 AM CST 5:53 PM CST
Nautical Twilight 6:22 AM CST 6:24 PM CST
Astronomical Twilight 5:52 AM CST 6:55 PM CST
Moon 11:50 AM CST (1/19) 12:59 AM CST (1/19)
Length of Visible Light 10h 58m
Length of Day
10h 02m
First Quarter, 57% of the Moon is Illuminated
Jan 19
First Quarter
Jan 26
Full
Feb 3
Last Quarter
Feb 10
New
Feb 17
First Quarter

Hourly Weather History & Observations

Time (CST) Temp. Windchill Dew Point Humidity Pressure Visibility Wind Dir Wind Speed Gust Speed Precip Events Conditions
12:15 AM 42.8 °F 39.3 °F 19.4 °F 39% 30.20 in 10.0 mi SSW 5.8 mph - N/A   Clear
12:35 AM 42.8 °F 40.1 °F 19.4 °F 39% 30.20 in 10.0 mi SSW 4.6 mph - N/A   Clear
12:55 AM 42.8 °F 38.0 °F 19.4 °F 39% 30.20 in 10.0 mi SSW 8.1 mph - N/A   Clear
1:15 AM 42.8 °F 38.6 °F 19.4 °F 39% 30.20 in 10.0 mi SSW 6.9 mph - N/A   Clear
1:35 AM 42.8 °F 39.3 °F 19.4 °F 39% 30.20 in 10.0 mi SW 5.8 mph - N/A   Clear
1:55 AM 41.0 °F 38.0 °F 19.4 °F 42% 30.21 in 10.0 mi SSW 4.6 mph - N/A   Clear
2:15 AM 41.0 °F 37.1 °F 19.4 °F 42% 30.20 in 10.0 mi SSW 5.8 mph - N/A   Clear
2:35 AM 41.0 °F 37.1 °F 21.2 °F 45% 30.20 in 10.0 mi SSW 5.8 mph - N/A   Clear
2:55 AM 41.0 °F 36.4 °F 21.2 °F 45% 30.19 in 10.0 mi SSW 6.9 mph - N/A   Clear
3:15 AM 42.8 °F 38.0 °F 23.0 °F 46% 30.18 in 10.0 mi SSW 8.1 mph - N/A   Clear
3:35 AM 42.8 °F 38.0 °F 23.0 °F 46% 30.17 in 10.0 mi SSW 8.1 mph - N/A   Clear
3:55 AM 42.8 °F 37.5 °F 23.0 °F 46% 30.17 in 10.0 mi SSW 9.2 mph - N/A   Clear
4:15 AM 42.8 °F 37.0 °F 24.8 °F 49% 30.17 in 10.0 mi SSW 10.4 mph - N/A   Clear
4:35 AM 42.8 °F 37.5 °F 24.8 °F 49% 30.17 in 10.0 mi SSW 9.2 mph - N/A   Clear
4:55 AM 42.8 °F 37.5 °F 24.8 °F 49% 30.16 in 10.0 mi SSW 9.2 mph - N/A   Clear
5:15 AM 44.6 °F 39.2 °F 24.8 °F 46% 30.16 in 10.0 mi SSW 10.4 mph 16.1 mph N/A   Clear
5:35 AM 44.6 °F 39.2 °F 24.8 °F 46% 30.16 in 10.0 mi SSW 10.4 mph 16.1 mph N/A   Clear
6:50 AM 44.6 °F 38.4 °F 26.6 °F 49% 30.15 in 10.0 mi SW 12.7 mph 18.4 mph N/A   Clear
7:56 AM 44.6 °F 39.2 °F 28.4 °F 53% 30.16 in 10.0 mi SSW 10.4 mph - N/A   Clear
8:50 AM 48.2 °F - 28.4 °F 46% 30.16 in 10.0 mi SSW 11.5 mph - N/A   Clear
9:50 AM 51.8 °F - 30.2 °F 44% 30.17 in 10.0 mi SW 11.5 mph 20.7 mph N/A   Clear
10:45 AM 55.4 °F - 32.0 °F 41% 30.17 in 10.0 mi SW 11.5 mph 23.0 mph N/A   Clear
11:45 AM 59.0 °F - 32.0 °F 36% 30.14 in 10.0 mi SW 12.7 mph 23.0 mph N/A   Clear
12:50 PM 60.8 °F - 32.0 °F 34% 30.10 in 10.0 mi West 17.3 mph 23.0 mph N/A   Clear
1:51 PM 62.6 °F - 30.2 °F 30% 30.09 in 10.0 mi WSW 18.4 mph 25.3 mph N/A   Clear
2:52 PM 62.6 °F - 30.2 °F 30% 30.08 in 10.0 mi WSW 13.8 mph 19.6 mph N/A   Clear
3:45 PM 62.6 °F - 30.2 °F 30% 30.08 in 10.0 mi SW 11.5 mph 17.3 mph N/A   Clear
5:53 PM 57.2 °F - 32.0 °F 38% 30.09 in 10.0 mi West 10.4 mph - N/A   Clear
6:56 PM 53.6 °F - 32.0 °F 44% 30.14 in 10.0 mi West 6.9 mph - N/A   Clear
7:55 PM 53.6 °F - 32.0 °F 44% 30.16 in 10.0 mi West 5.8 mph - N/A   Clear
7:56 PM 53.6 °F - 32.0 °F 44% 30.16 in 10.0 mi West 5.8 mph - N/A   Clear
8:15 PM 51.8 °F - 32.0 °F 47% 30.17 in 10.0 mi WSW 4.6 mph - N/A   Clear
8:35 PM 51.8 °F - 32.0 °F 47% 30.17 in 10.0 mi West 5.8 mph - N/A   Clear
8:55 PM 50.0 °F - 32.0 °F 50% 30.18 in 10.0 mi WNW 3.5 mph - N/A   Clear
8:56 PM 50.0 °F - 32.0 °F 50% 30.17 in 10.0 mi West 5.8 mph - N/A   Clear
9:15 PM 50.0 °F - 32.0 °F 50% 30.18 in 10.0 mi West 4.6 mph - N/A   Clear
9:35 PM 50.0 °F - 32.0 °F 50% 30.18 in 10.0 mi West 4.6 mph - N/A   Clear
9:55 PM 50.0 °F - 32.0 °F 50% 30.18 in 10.0 mi WSW 5.8 mph - N/A   Clear
10:15 PM 50.0 °F - 32.0 °F 50% 30.18 in 10.0 mi WSW 5.8 mph - N/A   Clear
10:35 PM 50.0 °F - 32.0 °F 50% 30.18 in 10.0 mi West 4.6 mph - N/A   Clear
10:55 PM 50.0 °F - 32.0 °F 50% 30.18 in 10.0 mi West 4.6 mph - N/A   Clear
11:15 PM 50.0 °F - 32.0 °F 50% 30.18 in 10.0 mi West 5.8 mph - N/A   Clear
11:35 PM 50.0 °F - 32.0 °F 50% 30.19 in 10.0 mi West 5.8 mph - N/A   Clear
11:55 PM 50.0 °F - 32.0 °F 50% 30.19 in 10.0 mi WSW 5.8 mph - N/A   Clear